Regional Weather Roundup
Issued by NWS

Home | Current Version | Previous Version | Graphics & Text | Print | Product List | Glossary On
Versions: 1 2 3 4 5 6 7 8 9 10 11 12 13 14 15 16 17 18 19 20 21 22 23 24 25 26 27 28 29 30 31 32 33 34 35 36 37 38 39 40 41 42 43 44 45 46 47 48 49 50
000
ASUS43 KLSX 040807
RWRMO

WEATHER SUMMARY FOR MISSOURI
NATIONAL WEATHER SERVICE SPRINGFIELD MO
200 AM CST WED MAR 04 2015

NOTE: "FAIR" INDICATES FEW OR NO CLOUDS BELOW 12,000 FEET WITH NO
       SIGNIFICANT WEATHER AND/OR OBSTRUCTIONS TO VISIBILITY.
       CURRENT SKY AND/OR WEATHER CONDITIONS ARE NOT AVAILABLE FOR
       CHILLICOTHE AND FARMINGTON.

MOZ001>031-035>038-043-044-053-054-040900-
...NORTHERN AND WESTERN MISSOURI...

CITY           SKY/WX    TMP DP  RH WIND       PRES   REMARKS
KANSAS CTY INT CLOUDY    22  12  65 N16       30.13R WCI   8
KANSAS C DTWN  PTCLDY    26  15  63 N15       30.12R WCI  14
LEE`S SUMMIT   CLOUDY    27  17  66 N16       30.09R WCI  15
ST JOSEPH      PTCLDY    18   7  62 N20G28    30.19R WCI   2
CHILLICOTHE      N/A     23  14  68 N13G23    30.13R WCI  11

$$
MOZ066>068-077>081-088>096-101>105-040900-
...SOUTHWEST MISSOURI...

CITY           SKY/WX    TMP DP  RH WIND       PRES   REMARKS
SPRINGFIELD    CLOUDY    35  32  88 N14       29.94R WCI  26
JOPLIN         CLOUDY    35  31  85 N13G22    29.98R WCI  26

$$
MOZ032>034-039>042-045>050-055>058-069>072-040900-
...CENTRAL MISSOURI...

CITY           SKY/WX    TMP DP  RH WIND       PRES   REMARKS
COLUMBIA       CLOUDY    33  28  81 N13       30.01R WCI  24
JEFFERSON CITY CLOUDY    36  29  75 N6        30.01S
ROLLA          MIX PCPN  33  31  92 N10       29.94S FOG     WCI  25
SEDALIA        CLOUDY    32  25  75 N14       30.06R WCI  22
WHITEMAN AFB   CLOUDY    30  25  80 N12       30.05R WCI  21
WARRENSBURG    CLOUDY    30  23  74 N13G20    30.08R WCI  20
OSAGE BEACH    CLOUDY    34  30  86 NW6       29.99S WCI  29

$$
MOZ051-052-059>065-040900-
...EAST CENTRAL MISSOURI...

CITY           SKY/WX    TMP DP  RH WIND       PRES   REMARKS
ST LOUIS INTL  LGTSLEET  35  29  78 NW5       29.98S
SPIRIT OF STL  CLOUDY    35  33  92 NW3       29.98R
ST CHARLES     CLOUDY    34  29  82 NW5       29.99R WCI  30

$$
MOZ072>076-082>087-097>100-106>115-040900-
...SOUTH CENTRAL AND SOUTHEAST MISSOURI...

CITY           SKY/WX    TMP DP  RH WIND       PRES   REMARKS
CAPE GIRARDEAU LGT RAIN  41  41 100 NE3       29.92R FOG
FARMINGTON     CLOUDY    37  36  93 N12       29.98R WCI  30
POPLAR BLUFF   LGT RAIN  42  40  92 N7        29.90F FOG
WEST PLAINS    LGT RAIN  41  39  93 NE5       29.89F FOG

$$


USA.gov is the U.S. government's official web portal to all federal, state and local government web resources and services.